sat.trackr.live / text

‹ back to catalog

STARLINK-31206

NORAD 59028 · 2024-038F

PAYLOAD ACTIVE UNKNOWN

§ Identity

Operator
Country
US
Launch date
2024-02-25
Launch site
AFETR
Launch vehicle
Mass (kg)
RCS (m²)

Purposes: comms

External: N2YO · Heavens-Above · Gunter

§ Orbital elements

Epoch: 2026-09-20T09:29:32.750880Z

Period
94.27 min
Inclination
43.0003°
Eccentricity
0.0000686
Mean motion
15.27584040 rev/d
Perigee alt
482.6 km
Apogee alt
483.5 km
Semi-major
6,861.2 km
B*
3.8671e-5
RAAN
302.4252°
Arg perigee
278.2466°
Mean anomaly
81.8308°
Rev number
14,530

§ Raw data

STARLINK-312061 59028U 24038F   26263.39551795  .00000803  00000+0  38671-4 0  99932 59028  43.0003 302.4252 0000686 278.2466  81.8308 15.27584040145306

JSON: /api/v1/satellites/59028 · /tle

For live sub-satellite position, see the globe view (requires WebGL).

§ Visibility from observer

Set your observer location to see the next 7 days of passes ≥ 10°. The values pass through the URL so the page stays shareable.

No JS? Fill the form by hand. The geolocation button needs JavaScript.